DW9313 Weather Reports


time (UTC)temp
C
wind
direction
speed
KPH
gust
KPH
rain 1hr
cm
rain 24hr
cm
rain mn
cm
humidity
%
barometer
mb
20260508020847 5 266 0.0 0.0 0.00 0.51 0.00 92 1013.2
20260508020345 5 266 0.0 0.0 0.00 0.51 0.00 91 1013.3
20260508015846 5 266 0.0 0.0 0.00 0.51 0.00 92 1013.3
20260508015346 5 266 0.0 0.0 0.00 0.51 0.00 93 1013.2
20260508014846 5 266 0.0 0.0 0.00 0.51 0.00 92 1013.3
20260508014347 5 266 0.0 0.0 0.00 0.51 0.00 91 1013.2
20260508013846 5 266 0.0 0.0 0.00 0.51 0.00 91 1013.2
20260508013347 6 266 0.0 0.0 0.00 0.51 0.00 92 1013.1
20260508012847 6 266 0.0 0.0 0.00 0.51 0.00 92 1013.2
20260508012346 6 266 0.0 0.0 0.00 0.51 0.00 92 1013.2
20260508011848 6 266 0.0 0.0 0.00 0.51 0.00 92 1013.2
20260508011348 6 266 0.0 0.0 0.00 0.51 0.00 93 1013.2
20260508010847 6 266 0.0 0.0 0.00 0.51 0.00 93 1013.2
20260508010347 5 266 0.0 0.0 0.00 0.51 0.00 92 1013.3
20260508005848 5 266 0.0 0.0 0.00 0.51 0.00 92 1013.3
20260508005347 5 266 0.0 0.0 0.00 0.51 0.00 91 1013.3
20260508004848 5 266 0.0 0.0 0.00 0.51 0.00 91 1013.4
20260508003847 6 266 0.0 0.0 0.00 0.51 0.00 91 1013.4
20260508002849 6 266 0.0 0.0 0.00 0.51 0.00 91 1013.4
20260508002347 6 266 0.0 0.0 0.00 0.51 0.00 91 1013.5
20260508001847 6 266 0.0 0.0 0.00 0.51 0.00 91 1013.5
20260508001347 6 266 0.0 0.0 0.00 0.51 0.00 90 1013.6
20260508000847 6 266 0.0 0.0 0.00 0.51 0.00 90 1013.6
20260508000349 6 266 0.0 0.0 0.00 0.51 0.00 90 1013.5
20260507234349 6 266 0.0 1.6 0.00 0.51 0.00 90 1013.6
20260507233848 6 266 0.0 0.0 0.00 0.51 0.00 90 1013.5
20260507233348 6 266 0.0 0.0 0.00 0.51 0.00 90 1013.5
20260507232847 6 266 0.0 0.0 0.00 0.51 0.00 90 1013.5
20260507232348 7 266 0.0 0.0 0.00 0.51 0.00 90 1013.6
20260507231850 7 266 0.0 0.0 0.00 0.51 0.00 90 1013.6
20260507231347 7 266 0.0 0.0 0.00 0.51 0.00 90 1013.6
20260507230905 7 266 0.0 0.0 0.00 0.51 0.00 89 1013.6
20260507225847 7 266 0.0 0.0 0.00 0.51 0.05 89 1013.6
20260507224848 7 266 0.0 0.0 0.00 0.51 0.05 89 1013.5
20260507224349 7 266 0.0 0.0 0.00 0.51 0.05 89 1013.4
20260507223847 7 266 0.0 0.0 0.00 0.51 0.05 88 1013.4
20260507223347 7 266 0.0 0.0 0.00 0.51 0.05 88 1013.5
20260507222848 7 266 0.0 0.0 0.00 0.51 0.05 88 1013.5
20260507222348 7 266 0.0 0.0 0.00 0.51 0.05 88 1013.4
20260507221849 7 266 0.0 0.0 0.00 0.51 0.05 87 1013.4
20260507221350 7 266 0.0 0.0 0.00 0.51 0.05 86 1013.4
20260507220849 8 266 0.0 0.0 0.00 0.51 0.05 86 1013.4
20260507220348 8 266 0.0 0.0 0.00 0.51 0.05 87 1013.4
20260507215848 8 266 0.0 0.0 0.00 0.51 0.05 87 1013.3
20260507215348 8 267 0.0 1.6 0.00 0.51 0.05 87 1013.3
20260507214849 8 266 0.0 1.6 0.00 0.51 0.05 87 1013.3
20260507214248 8 201 0.0 0.0 0.00 0.51 0.05 87 1013.3
20260507213749 8 197 0.0 0.0 0.00 0.51 0.05 86 1013.3
20260507213248 8 197 0.0 0.0 0.00 0.51 0.05 86 1013.3
20260507211749 8 197 0.0 0.0 0.00 0.51 0.05 85 1013.3
20260507211248 8 197 0.0 0.0 0.00 0.51 0.05 84 1013.2
20260507210750 8 197 0.0 1.6 0.00 0.51 0.05 84 1013.2
20260507210248 8 235 0.0 0.0 0.00 0.51 0.05 84 1013.1
20260507205750 8 233 0.0 0.0 0.00 0.51 0.05 84 1013.0
20260507205248 9 234 0.0 0.0 0.00 0.51 0.05 84 1013.0
20260507204248 9 234 0.0 0.0 0.00 0.51 0.05 83 1012.9
20260507203748 10 234 0.0 1.6 0.00 0.51 0.05 82 1012.9
20260507203249 10 234 0.0 0.0 0.00 0.51 0.05 82 1012.9
20260507202249 10 229 0.0 1.6 0.00 0.51 0.05 82 1012.7
20260507201748 10 214 0.0 1.6 0.00 0.51 0.05 81 1012.6
20260507201248 10 201 0.0 1.6 0.00 0.51 0.05 81 1012.6
20260507200249 10 204 0.0 1.6 0.00 0.51 0.05 80 1012.6
20260507195748 11 230 0.0 1.6 0.00 0.51 0.05 79 1012.6
20260507195249 11 200 0.0 3.2 0.00 0.51 0.05 79 1012.5
20260507194248 11 77 0.0 1.6 0.00 0.51 0.05 78 1012.5
20260507193249 11 179 0.0 1.6 0.00 0.51 0.05 78 1012.5
20260507192750 11 102 0.0 3.2 0.00 0.51 0.05 78 1012.5
20260507192249 11 317 0.0 3.2 0.00 0.51 0.05 78 1012.5
20260507191251 11 297 1.6 8.0 0.00 0.51 0.05 78 1012.4
20260507190816 12 316 1.6 3.2 0.00 0.51 0.05 77 1012.3
20260507190252 12 307 1.6 8.0 0.00 0.51 0.05 77 1012.4
20260507185751 12 324 0.0 4.8 0.00 0.51 0.05 77 1012.3
20260507185249 12 329 1.6 9.7 0.00 0.51 0.05 76 1012.3
20260507184750 12 317 1.6 4.8 0.00 0.51 0.05 76 1012.3
20260507184249 12 319 1.6 8.0 0.00 0.51 0.05 76 1012.4
20260507183749 12 358 1.6 8.0 0.00 0.51 0.05 76 1012.4
20260507183250 12 298 0.0 3.2 0.00 0.51 0.05 76 1012.4
20260507182250 12 357 0.0 4.8 0.00 0.51 0.05 76 1012.3
20260507181750 12 302 1.6 8.0 0.00 0.51 0.05 76 1012.2
20260507181249 12 287 1.6 9.7 0.00 0.51 0.05 76 1012.2
20260507180751 12 153 1.6 9.7 0.00 0.51 0.05 75 1012.2
20260507180249 12 327 3.2 9.7 0.00 0.51 0.05 76 1012.2
20260507175249 12 321 4.8 12.9 0.00 0.51 0.05 76 1012.2
20260507174751 12 332 6.4 12.9 0.00 0.51 0.05 75 1012.2
20260507174250 12 323 6.4 11.3 0.00 0.51 0.05 75 1012.2
20260507173750 12 324 8.0 14.5 0.00 0.51 0.05 73 1012.2
20260507173250 13 311 4.8 14.5 0.00 0.51 0.05 75 1012.2
20260507172749 13 315 6.4 12.9 0.00 0.51 0.05 74 1012.2
20260507172250 13 312 4.8 14.5 0.00 0.51 0.05 73 1012.2
20260507171750 13 329 6.4 14.5 0.00 0.51 0.05 71 1012.1
20260507171251 13 293 4.8 11.3 0.00 0.51 0.05 71 1012.2
20260507170750 13 305 1.6 16.1 0.00 0.51 0.05 74 1012.3
20260507170252 13 312 8.0 14.5 0.00 0.51 0.05 72 1012.3
20260507165250 13 338 3.2 11.3 0.03 0.51 0.05 75 1012.3
20260507164751 13 317 3.2 12.9 0.03 0.51 0.05 73 1012.3
20260507164252 13 318 9.7 16.1 0.03 0.51 0.05 71 1012.3
20260507163751 14 297 4.8 12.9 0.00 0.51 0.08 72 1012.3
20260507162750 14 323 3.2 14.5 0.00 0.51 0.08 72 1012.4
20260507161750 15 322 4.8 16.1 0.00 0.48 0.05 69 1012.4
20260507161251 15 321 3.2 11.3 0.00 0.48 0.05 69 1012.4
20260507160751 15 2 3.2 12.9 0.00 0.48 0.05 68 1012.4
20260507160252 15 316 3.2 9.7 0.00 0.48 0.05 70 1012.4
20260507155250 14 288 8.0 14.5 0.03 0.48 0.08 69 1012.4
20260507154250 15 324 4.8 12.9 0.03 0.48 0.08 67 1012.3
20260507153752 15 319 3.2 12.9 0.03 0.48 0.08 70 1012.3
20260507153250 15 314 8.0 16.1 0.03 0.48 0.08 68 1012.2
20260507152752 15 290 3.2 19.3 0.03 0.48 0.08 70 1012.1
20260507152251 15 325 8.0 19.3 0.03 0.48 0.08 70 1012.1
20260507151751 15 321 3.2 16.1 0.00 0.46 0.05 71 1012.1
20260507151252 14 326 4.8 12.9 0.00 0.46 0.05 72 1012.2
20260507145751 14 315 4.8 11.3 0.00 0.46 0.05 72 1012.3
20260507145252 14 348 4.8 16.1 0.00 0.46 0.05 73 1012.3
20260507144751 15 311 9.7 20.9 0.00 0.46 0.05 71 1012.2
20260507144252 15 305 8.0 14.5 0.00 0.46 0.05 70 1012.3
20260507143751 15 320 3.2 11.3 0.00 0.46 0.05 70 1012.3
20260507142751 15 325 6.4 16.1 0.00 0.46 0.05 65 1012.4
20260507142251 15 317 4.8 12.9 0.00 0.46 0.05 65 1012.4
20260507141752 15 313 4.8 14.5 0.00 0.46 0.05 66 1012.4
20260507141251 15 346 4.8 11.3 0.00 0.46 0.05 65 1012.3
20260507140751 15 334 4.8 19.3 0.00 0.46 0.05 67 1012.3
20260507135752 15 284 3.2 12.9 0.00 0.46 0.05 68 1012.3
20260507135251 15 291 4.8 11.3 0.00 0.46 0.05 67 1012.4
20260507134752 15 332 3.2 9.7 0.00 0.46 0.05 67 1012.4
20260507134251 15 198 4.8 14.5 0.00 0.46 0.05 69 1012.3
20260507133752 15 320 3.2 9.7 0.08 0.46 0.05 68 1012.4
20260507133253 15 289 3.2 19.3 0.08 0.46 0.05 68 1012.3
20260507132251 15 309 3.2 14.5 0.10 0.46 0.05 69 1012.3
20260507131752 15 259 4.8 12.9 0.10 0.46 0.05 70 1012.3
20260507131252 15 342 4.8 14.5 0.10 0.46 0.05 69 1012.4
20260507130251 15 199 4.8 9.7 0.10 0.46 0.05 69 1012.4
20260507125752 15 332 3.2 9.7 0.10 0.46 0.05 68 1012.5
20260507125252 15 339 3.2 20.9 0.08 0.46 0.13 69 1012.5
20260507124751 15 322 3.2 9.7 0.08 0.46 0.13 69 1012.4
20260507124253 15 124 4.8 12.9 0.08 0.46 0.13 71 1012.5
20260507123752 15 198 4.8 14.5 0.08 0.46 0.13 71 1012.5
20260507123252 15 353 6.4 16.1 0.00 0.38 0.05 69 1012.5
20260507122753 15 281 4.8 19.3 0.00 0.38 0.05 70 1012.5
20260507121753 15 280 3.2 14.5 0.00 0.36 0.05 68 1012.6
20260507121254 14 152 3.2 12.9 0.00 0.36 0.05 67 1012.6
20260507120752 14 338 3.2 14.5 0.00 0.36 0.05 69 1012.6
20260507120253 15 338 3.2 11.3 0.00 0.36 0.05 70 1012.6
20260507115752 14 213 1.6 11.3 0.00 0.36 0.05 72 1012.6
20260507115252 14 319 3.2 11.3 0.00 0.36 0.05 72 1012.6
20260507114753 13 347 3.2 11.3 0.00 0.36 0.05 72 1012.6
20260507114252 14 338 1.6 9.7 0.00 0.36 0.05 72 1012.6
20260507113753 14 327 1.6 9.7 0.05 0.36 0.05 73 1012.5
20260507113253 14 355 3.2 16.1 0.00 0.36 0.05 72 1012.6
20260507112752 14 192 1.6 14.5 0.00 0.36 0.05 73 1012.6
20260507112253 13 14 4.8 11.3 0.00 0.36 0.05 72 1012.6
20260507111752 13 298 4.8 14.5 0.00 0.36 0.05 73 1012.6
20260507111253 13 120 3.2 9.7 0.00 0.36 0.05 71 1012.5
20260507110753 13 81 3.2 11.3 0.05 0.36 0.05 72 1012.5
20260507110253 13 307 4.8 12.9 0.28 0.36 0.10 73 1012.6
20260507105752 13 170 1.6 9.7 0.05 0.36 0.10 74 1012.6
20260507105253 13 310 3.2 9.7 0.08 0.36 0.10 76 1012.6
20260507104752 13 150 1.6 4.8 0.08 0.36 0.10 76 1012.6
20260507104254 13 144 1.6 9.7 0.08 0.36 0.10 76 1012.6
20260507103754 12 330 3.2 11.3 0.08 0.36 0.10 76 1012.6
20260507102754 13 305 3.2 12.9 0.03 0.30 0.05 78 1012.6
20260507102254 12 291 3.2 8.0 0.03 0.30 0.05 78 1012.6
20260507101753 12 232 0.0 4.8 0.03 0.30 0.05 81 1012.6
20260507101253 12 259 1.6 8.0 0.05 0.30 0.05 81 1012.6
20260507100754 12 179 1.6 8.0 0.28 0.30 0.30 85 1012.6
20260507100254 12 231 3.2 8.0 0.15 0.18 0.18 87 1012.6
20260507095755 11 165 0.0 4.8 0.05 0.08 0.08 88 1012.6
20260507095255 11 328 0.0 8.0 0.03 0.05 0.05 88 1012.6
20260507094753 11 203 1.6 8.0 0.03 0.05 0.05 87 1012.6
20260507094254 11 180 4.8 9.7 0.03 0.05 0.05 86 1012.6
20260507093754 11 146 1.6 4.8 0.03 0.05 0.05 85 1012.6
20260507093255 11 161 0.0 1.6 0.03 0.05 0.05 84 1012.5
20260507092754 11 278 1.6 8.0 0.03 0.05 0.05 84 1012.5
20260507092254 12 317 1.6 8.0 0.03 0.03 0.03 85 1012.4
20260507091754 12 301 1.6 9.7 0.03 0.03 0.03 85 1012.4
20260507085753 11 163 4.8 9.7 0.03 0.03 0.03 88 1012.4
20260507085254 11 158 4.8 9.7 0.03 0.03 0.03 88 1012.5
20260507084753 11 139 1.6 9.7 0.03 0.03 0.03 89 1012.4
20260507084253 11 146 1.6 8.0 0.03 0.03 0.03 88 1012.5
20260507083754 11 188 1.6 9.7 0.03 0.03 0.03 88 1012.4
20260507082755 11 199 0.0 4.8 0.03 0.03 0.03 86 1012.4
20260507081754 11 176 1.6 11.3 0.00 0.00 0.00 83 1012.5
20260507081254 11 132 1.6 4.8 0.00 0.00 0.00 81 1012.4
20260507080754 11 278 3.2 12.9 0.00 0.00 0.00 78 1012.4
20260507080254 11 177 9.7 14.5 0.00 0.00 0.00 74 1012.3
20260507075754 12 180 1.6 11.3 0.00 0.00 0.00 74 1012.3
20260507075255 12 179 8.0 12.9 0.00 0.00 0.00 72 1012.3
20260507074755 12 176 8.0 12.9 0.00 0.00 0.00 73 1012.2
20260507074254 12 154 3.2 9.7 0.00 0.00 0.00 73 1012.1
20260507072754 12 151 4.8 11.3 0.00 0.00 0.00 75 1012.2
20260507072254 12 176 4.8 11.3 0.00 0.00 0.00 77 1012.1
20260507071754 11 152 4.8 11.3 0.00 0.00 0.00 78 1012.1
20260507071254 11 161 4.8 11.3 0.00 0.00 0.00 77 1012.2
20260507070755 11 179 6.4 12.9 0.00 0.00 0.00 77 1012.1
20260507070255 11 135 4.8 11.3 0.00 0.00 0.00 79 1012.1
20260507065756 11 150 6.4 12.9 0.00 0.00 0.00 80 1012.1
20260507065254 11 126 8.0 12.9 0.00 0.00 0.00 81 1012.1
20260507064254 11 111 1.6 3.2 0.00 0.00 0.00 82 1012.3
20260507063256 11 128 0.0 3.2 0.00 0.00 0.00 82 1012.3
20260507062755 10 98 0.0 1.6 0.00 0.00 0.00 82 1012.4
20260507062255 10 98 0.0 1.6 0.00 0.00 0.00 83 1012.4
20260507061755 10 98 0.0 0.0 0.00 0.00 0.00 86 1012.4
20260507061256 9 98 0.0 0.0 0.00 0.00 0.00 87 1012.4
20260507060755 8 98 0.0 0.0 0.00 0.00 0.00 89 1012.4
20260507060254 8 98 0.0 0.0 0.00 0.00 0.00 90 1012.4
20260507055755 8 98 0.0 0.0 0.00 0.00 0.00 92 1012.4
20260507054756 6 99 0.0 0.0 0.00 0.00 0.00 93 1012.4
20260507053755 6 99 0.0 1.6 0.00 0.00 0.00 92 1012.3
20260507053255 5 105 0.0 1.6 0.00 0.00 0.00 92 1012.3
20260507052756 5 13 0.0 0.0 0.00 0.00 0.00 92 1012.3
20260507051756 5 359 0.0 0.0 0.00 0.00 0.00 92 1012.3
20260507051256 5 359 0.0 0.0 0.00 0.00 0.00 92 1012.3
20260507050755 5 359 0.0 0.0 0.00 0.00 0.00 91 1012.3
20260507050255 5 359 0.0 0.0 0.00 0.00 0.00 91 1012.3
20260507045757 5 359 0.0 0.0 0.00 0.00 0.00 91 1012.2
20260507045257 5 359 0.0 0.0 0.00 0.00 0.00 91 1012.2
20260507044758 6 359 0.0 0.0 0.00 0.00 0.00 91 1012.3
20260507044256 6 359 0.0 0.0 0.00 0.00 0.00 91 1012.2
20260507043756 6 359 0.0 0.0 0.00 0.00 0.00 91 1012.3
20260507043255 6 359 0.0 0.0 0.00 0.00 0.00 92 1012.2
20260507042755 6 359 0.0 0.0 0.00 0.00 0.00 91 1012.2
20260507042256 6 359 0.0 0.0 0.00 0.00 0.00 91 1012.3
20260507041757 6 359 0.0 0.0 0.00 0.00 0.00 91 1012.2
20260507041255 6 359 0.0 0.0 0.00 0.00 0.00 91 1012.2
20260507040757 6 359 0.0 0.0 0.00 0.00 0.00 91 1012.2
20260507040256 6 359 0.0 0.0 0.00 0.00 0.00 90 1012.2
20260507035756 6 359 0.0 0.0 0.00 0.00 0.00 90 1012.2
20260507035256 6 359 0.0 0.0 0.00 0.00 0.00 90 1012.3
20260507034757 6 359 0.0 0.0 0.00 0.00 0.00 90 1012.3
20260507034258 6 359 0.0 0.0 0.00 0.00 0.00 90 1012.3
20260507033756 7 359 0.0 0.0 0.00 0.00 0.00 90 1012.3
20260507033256 7 359 0.0 0.0 0.00 0.00 0.00 90 1012.3
20260507032258 7 359 0.0 0.0 0.00 0.00 0.00 90 1012.3
20260507031756 7 342 0.0 0.0 0.00 0.00 0.00 90 1012.3
20260507030757 7 342 0.0 0.0 0.00 0.00 0.00 89 1012.4
20260507030257 7 342 0.0 0.0 0.00 0.00 0.00 89 1012.4
20260507025758 7 342 0.0 0.0 0.00 0.00 0.00 89 1012.4
20260507025257 7 342 0.0 0.0 0.00 0.00 0.00 88 1012.4
20260507024756 7 342 0.0 0.0 0.00 0.00 0.00 88 1012.4
20260507024258 8 342 0.0 0.0 0.00 0.00 0.00 88 1012.4
20260507023757 8 342 0.0 0.0 0.00 0.00 0.00 87 1012.4
20260507023257 8 342 0.0 0.0 0.00 0.00 0.00 87 1012.4
20260507022756 8 342 0.0 0.0 0.00 0.00 0.00 87 1012.4
20260507022257 8 342 0.0 0.0 0.00 0.00 0.00 87 1012.4
20260507021757 8 342 0.0 0.0 0.00 0.00 0.00 87 1012.4